GSAT0206 (GALILEO 10)

Last updated on Wed Sep 17 2025 00:02:34 GMT+0000 (Coordinated Universal Time)

1 40890U 15045B 25259.52198991 .00000012 00000+0 00000+0 0 9994 2 40890 55.0370 229.1592 0002090 344.6792 15.2834 1.70473064 62372
UTC large
Height (km)
Speed (km/s)
/
Latitude / Longitude
Inclination (degrees)
Orbital Period (minutes)
Azimuth
Elevation
Range (km)
Doppler Factor

Next 0 passes for location: London (51.5072 / 0.1276)

Sorry there are no passes over London.